ARG7091 SPJJ-SPHY

Flight info

Callsign ARG7091
Flight time 0h 30m
Altitude 33000
Route LOKEB ETETU ITARA SIMUK IAND
Aircraft E190/M-Y/S

Departure

Time 2026-05-04 15:38
Airport Francisco Carle Airport (SPJJ)

Arrival

Time 2026-05-04 16:08
Airport Andahuaylas Airport (SPHY)
Time Latitude Longitude Altitude Speed Heading
2026-05-04 15:14 -11.78491 -75.47317 11027 ft 0 kts 218°
2026-05-04 15:30 -11.78490 -75.47316 11027 ft 2 kts 218°
2026-05-04 15:30 -11.78436 -75.47317 11028 ft 3 kts 127°
2026-05-04 15:31 -11.78434 -75.47320 11028 ft 0 kts 127°
2026-05-04 15:34 -11.78294 -75.47398 11027 ft 24 kts 309°
2026-05-04 15:34 -11.78171 -75.47562 11024 ft 34 kts 307°
2026-05-04 15:34 -11.77834 -75.48004 11024 ft 32 kts 308°
2026-05-04 15:35 -11.77630 -75.48298 11027 ft 23 kts 295°
2026-05-04 15:35 -11.77569 -75.48356 11026 ft 8 kts 37°
2026-05-04 15:35 -11.77573 -75.48331 11026 ft 0 kts 129°
2026-05-04 15:36 -11.77580 -75.48323 11026 ft 13 kts 129°
2026-05-04 15:36 -11.77739 -75.48122 11027 ft 60 kts 128°
2026-05-04 15:36 -11.78089 -75.47664 11024 ft 103 kts 128°
2026-05-04 15:37 -11.78607 -75.46982 11024 ft 139 kts 128°
2026-05-04 15:37 -11.79275 -75.46148 11026 ft 166 kts 133°
2026-05-04 15:37 -11.80066 -75.45271 11338 ft 165 kts 134°
2026-05-04 15:37 -11.80973 -75.44459 11448 ft 189 kts 139°
2026-05-04 15:38 -11.81973 -75.43520 11825 ft 198 kts 135°
2026-05-04 15:38 -11.82970 -75.42506 12296 ft 211 kts 134°
2026-05-04 15:38 -11.84064 -75.41367 12382 ft 237 kts 134°
2026-05-04 15:38 -11.85263 -75.40112 12595 ft 255 kts 134°
2026-05-04 15:39 -11.86517 -75.38798 13120 ft 259 kts 134°
2026-05-04 15:39 -11.87788 -75.37461 13624 ft 269 kts 134°
2026-05-04 15:39 -11.91056 -75.35357 14211 ft 305 kts 168°
2026-05-04 15:40 -11.93160 -75.34638 14231 ft 334 kts 150°
2026-05-04 15:40 -11.95006 -75.33080 14399 ft 356 kts 133°
2026-05-04 15:40 -11.96731 -75.31181 14734 ft 373 kts 131°
2026-05-04 15:40 -11.98482 -75.29157 15226 ft 387 kts 130°
2026-05-04 15:41 -12.00254 -75.27072 16001 ft 390 kts 130°
2026-05-04 15:41 -12.02168 -75.25086 16758 ft 394 kts 134°
2026-05-04 15:41 -12.04123 -75.23107 17498 ft 397 kts 134°
2026-05-04 15:41 -12.06094 -75.21158 18205 ft 401 kts 134°
2026-05-04 15:42 -12.08098 -75.19162 18862 ft 404 kts 133°
2026-05-04 15:42 -12.10124 -75.17153 19388 ft 408 kts 133°
2026-05-04 15:42 -12.12177 -75.15115 19903 ft 412 kts 133°
2026-05-04 15:42 -12.14246 -75.13070 20402 ft 416 kts 134°
2026-05-04 15:43 -12.16098 -75.11218 20848 ft 419 kts 134°
2026-05-04 15:43 -12.17314 -75.10012 21130 ft 422 kts 134°
2026-05-04 15:43 -12.19426 -75.07912 21581 ft 425 kts 134°
2026-05-04 15:43 -12.21553 -75.05793 22050 ft 429 kts 134°
2026-05-04 15:44 -12.23705 -75.03655 22520 ft 433 kts 135°
2026-05-04 15:44 -12.25873 -75.01492 22978 ft 437 kts 134°
2026-05-04 15:44 -12.28066 -74.99319 23439 ft 440 kts 135°
2026-05-04 15:44 -12.30267 -74.97130 23881 ft 444 kts 135°
2026-05-04 15:45 -12.32484 -74.94923 24255 ft 447 kts 135°
2026-05-04 15:45 -12.34717 -74.92699 24600 ft 450 kts 135°
2026-05-04 15:45 -12.36940 -74.90482 24944 ft 453 kts 135°
2026-05-04 15:45 -12.39204 -74.88228 25232 ft 455 kts 135°
2026-05-04 15:46 -12.41479 -74.85959 25539 ft 458 kts 135°
2026-05-04 15:46 -12.43769 -74.83676 25813 ft 461 kts 135°
2026-05-04 15:46 -12.46071 -74.81380 26076 ft 463 kts 135°
2026-05-04 15:46 -12.48387 -74.79071 26360 ft 466 kts 134°
2026-05-04 15:47 -12.50720 -74.76741 26636 ft 469 kts 135°
2026-05-04 15:47 -12.53067 -74.74401 26901 ft 471 kts 135°
2026-05-04 15:47 -12.55418 -74.72053 27168 ft 474 kts 135°
2026-05-04 15:47 -12.57755 -74.69720 27437 ft 477 kts 135°
2026-05-04 15:48 -12.60138 -74.67342 27675 ft 479 kts 134°
2026-05-04 15:48 -12.62532 -74.64947 27933 ft 482 kts 135°
2026-05-04 15:48 -12.67361 -74.60120 28408 ft 487 kts 135°
2026-05-04 15:49 -12.69800 -74.57683 28637 ft 489 kts 135°
2026-05-04 15:49 -12.72236 -74.55246 28876 ft 491 kts 135°
2026-05-04 15:49 -12.74690 -74.52792 29103 ft 493 kts 135°
2026-05-04 15:49 -12.77147 -74.50335 29326 ft 495 kts 135°
2026-05-04 15:50 -12.79616 -74.47859 29586 ft 495 kts 135°
2026-05-04 15:50 -12.81998 -74.45475 30077 ft 490 kts 135°
2026-05-04 15:50 -12.84497 -74.42974 30474 ft 488 kts 135°
2026-05-04 15:50 -12.86923 -74.40542 30703 ft 488 kts 135°
2026-05-04 15:51 -12.89327 -74.38134 30941 ft 488 kts 135°
2026-05-04 15:51 -12.91750 -74.35703 31158 ft 488 kts 135°
2026-05-04 15:51 -12.94179 -74.33270 31415 ft 488 kts 135°
2026-05-04 15:51 -12.96607 -74.30832 31630 ft 488 kts 135°
2026-05-04 15:52 -12.99040 -74.28392 31835 ft 488 kts 134°
2026-05-04 15:52 -13.01467 -74.25955 32049 ft 489 kts 134°
2026-05-04 15:52 -13.03902 -74.23512 32297 ft 488 kts 134°
2026-05-04 15:52 -13.06329 -74.21073 32484 ft 489 kts 134°
2026-05-04 15:53 -13.08762 -74.18630 32706 ft 490 kts 134°
2026-05-04 15:53 -13.11195 -74.16184 32898 ft 490 kts 134°
2026-05-04 15:53 -13.13635 -74.13733 33133 ft 490 kts 134°
2026-05-04 15:53 -13.16068 -74.11287 33342 ft 486 kts 134°
2026-05-04 15:54 -13.18432 -74.08911 33404 ft 466 kts 134°
2026-05-04 15:54 -13.20751 -74.06576 33454 ft 468 kts 134°
2026-05-04 15:54 -13.25459 -74.01838 33488 ft 479 kts 134°
2026-05-04 15:55 -13.30249 -73.97015 33480 ft 491 kts 134°
2026-05-04 15:55 -13.35124 -73.92103 33431 ft 489 kts 134°
2026-05-04 15:56 -13.39993 -73.87195 33402 ft 490 kts 134°
2026-05-04 15:56 -13.44862 -73.82280 33394 ft 491 kts 134°
2026-05-04 15:57 -13.49069 -73.78035 33198 ft 489 kts 134°
2026-05-04 15:57 -13.51029 -73.76053 32395 ft 492 kts 134°
2026-05-04 15:57 -13.53459 -73.73594 31921 ft 482 kts 133°
2026-05-04 15:58 -13.55590 -73.71031 31757 ft 464 kts 124°
2026-05-04 15:58 -13.57233 -73.68243 31577 ft 447 kts 114°
2026-05-04 15:58 -13.58362 -73.65368 30978 ft 425 kts 104°
2026-05-04 15:58 -13.58951 -73.62454 30280 ft 408 kts 94°
2026-05-04 15:59 -13.58998 -73.59601 29544 ft 392 kts 83°
2026-05-04 15:59 -13.58522 -73.56891 28835 ft 377 kts 71°
2026-05-04 15:59 -13.57563 -73.54440 28154 ft 362 kts 59°
2026-05-04 15:59 -13.56196 -73.52357 27487 ft 349 kts 47°
2026-05-04 16:00 -13.54466 -73.50673 26826 ft 338 kts 34°
2026-05-04 16:00 -13.52678 -73.49574 26242 ft 329 kts 24°
2026-05-04 16:00 -13.50626 -73.48607 25590 ft 321 kts 30°
2026-05-04 16:00 -13.48860 -73.47264 24889 ft 314 kts 51°
2026-05-04 16:01 -13.47790 -73.45355 24144 ft 308 kts 75°
2026-05-04 16:01 -13.47227 -73.43248 23436 ft 303 kts 77°
2026-05-04 16:01 -13.46797 -73.41153 22696 ft 297 kts 81°
2026-05-04 16:01 -13.46658 -73.39047 21974 ft 293 kts 89°
2026-05-04 16:02 -13.46648 -73.36966 21274 ft 290 kts 91°
2026-05-04 16:02 -13.46739 -73.34911 20631 ft 286 kts 95°
2026-05-04 16:02 -13.47544 -73.30968 19329 ft 278 kts 103°
2026-05-04 16:03 -13.48085 -73.29067 18777 ft 274 kts 107°
2026-05-04 16:03 -13.48822 -73.27287 18064 ft 273 kts 114°
2026-05-04 16:03 -13.49702 -73.25558 17380 ft 272 kts 117°
2026-05-04 16:03 -13.50878 -73.24050 16657 ft 274 kts 143°
2026-05-04 16:04 -13.52639 -73.23313 15992 ft 277 kts 174°
2026-05-04 16:04 -13.56055 -73.24692 15420 ft 262 kts 220°
2026-05-04 16:04 -13.57350 -73.25874 15431 ft 245 kts 221°
2026-05-04 16:05 -13.58622 -73.27007 15160 ft 241 kts 218°
2026-05-04 16:05 -13.59933 -73.28082 14924 ft 239 kts 215°
2026-05-04 16:05 -13.62559 -73.29827 14741 ft 215 kts 211°
2026-05-04 16:06 -13.63803 -73.30625 14284 ft 205 kts 211°
2026-05-04 16:06 -13.66965 -73.32632 12689 ft 189 kts 212°
2026-05-04 16:07 -13.68386 -73.33510 12226 ft 173 kts 212°
2026-05-04 16:07 -13.71171 -73.35331 11672 ft 90 kts 214°
2026-05-04 16:08 -13.71389 -73.35489 11662 ft 9 kts 219°
2026-05-04 16:08 -13.71378 -73.35456 11664 ft 9 kts 35°
2026-05-04 16:09 -13.71270 -73.35390 11670 ft 10 kts 30°
2026-05-04 16:09 -13.71243 -73.35295 11671 ft 9 kts 185°
2026-05-04 16:10 -13.71293 -73.35287 11671 ft 2 kts 125°
2026-05-04 16:11 -13.71299 -73.35279 11671 ft 0 kts 127°